To NAV CANADA Home Page Login to a new session Search on AWWS site Feedback and Comments Disclaimer Vers la page française équivalente Tips FAQ What's new on the site To the Forecasts and Observations / NOTAM section To "File a Flight Plan" website Publications and other links Update of the User's profile FIC Telephone Numbers My Weather Data Folder Route Weather Data Regional Weather Data Local Weather Data To the Forecasts and Observations / NOTAM section
Request Generated 01/21/2017 at 02:06:04 UTC . Weather information available at that time is displayed.

METAR/TAF

DAWSON CITY/YT    

LWIS CYDA 210200Z AUTO 00000KT M39/M42 A2988=
LWIS CYDA 210100Z AUTO 00000KT M39/M43 A2988=
METAR CYDA 210000Z 00000KT 20SM FEW220 M38/M42 A2988 RMK CI1 CLIMAT
-37.8/-40.8/0.0 LAST STFD OBS/NXT 211500Z SLP184=

*** REMARK        : Forecast period has ended; this was the last TAF issued
*** REMARQUE : La période de prévision est échue; ceci était le dernier TAF qui a été émis
TAF CYDA 201740Z 2018/2024 00000KT P6SM SKC
RMK NXT FCST WILL BE ISSUED AT 211645Z=
Your time UTC time
Weather data provided by Environment Canada and NAV CANADA